TimeCST,TemperatureF,Dew PointF,Humidity,Sea Level PressureIn,VisibilityMPH,Wind Direction,Wind SpeedMPH,Gust SpeedMPH,PrecipitationIn,Events,Conditions,WindDirDegrees,DateUTC
12:53 AM,32.0,23.0,69,30.17,10.0,ENE,3.5,-,N/A,,Overcast,70,2012-12-27 06:53:00
1:53 AM,30.9,24.1,76,30.20,10.0,Calm,Calm,-,N/A,,Overcast,0,2012-12-27 07:53:00
2:02 AM,30.2,23.0,75,30.17,10.0,NW,3.5,-,N/A,,Overcast,310,2012-12-27 08:02:00
2:53 AM,28.0,21.9,78,30.19,10.0,Calm,Calm,-,N/A,,Mostly Cloudy,0,2012-12-27 08:53:00
3:53 AM,24.1,19.9,84,30.19,10.0,Calm,Calm,-,N/A,,Scattered Clouds,0,2012-12-27 09:53:00
4:53 AM,25.0,21.0,85,30.19,10.0,Calm,Calm,-,N/A,,Clear,0,2012-12-27 10:53:00
5:53 AM,21.0,18.0,88,30.19,10.0,North,-9999.0,-,N/A,,Clear,0,2012-12-27 11:53:00
6:53 AM,21.0,18.0,88,30.21,10.0,NW,3.5,-,N/A,,Clear,310,2012-12-27 12:53:00
7:53 AM,23.0,19.0,85,30.21,10.0,Calm,Calm,-,N/A,,Clear,0,2012-12-27 13:53:00
8:53 AM,26.1,21.9,84,30.22,10.0,Calm,Calm,-,N/A,,Clear,0,2012-12-27 14:53:00
9:53 AM,32.0,21.9,66,30.23,10.0,NE,5.8,-,N/A,,Clear,40,2012-12-27 15:53:00
10:53 AM,34.0,24.1,67,30.23,10.0,NE,5.8,-,N/A,,Clear,50,2012-12-27 16:53:00
11:53 AM,34.0,23.0,64,30.19,10.0,SE,5.8,-,N/A,,Clear,140,2012-12-27 17:53:00
12:53 PM,35.1,24.1,64,30.16,10.0,SSE,5.8,-,N/A,,Clear,150,2012-12-27 18:53:00
1:53 PM,34.0,25.0,70,30.14,10.0,SE,6.9,-,N/A,,Clear,130,2012-12-27 19:53:00
3:53 PM,33.1,26.1,75,30.14,10.0,SE,4.6,-,N/A,,Clear,130,2012-12-27 21:53:00
4:53 PM,33.1,26.1,75,30.13,10.0,Calm,Calm,-,N/A,,Clear,0,2012-12-27 22:53:00
6:53 PM,32.0,25.0,75,30.13,10.0,ENE,4.6,-,N/A,,Clear,70,2012-12-28 00:53:00
7:53 PM,32.0,26.1,79,30.12,10.0,East,4.6,-,0.00,,Clear,80,2012-12-28 01:53:00
8:53 PM,32.0,26.1,79,30.11,9.0,East,4.6,-,N/A,,Mostly Cloudy,80,2012-12-28 02:53:00
9:23 PM,32.0,26.6,80,30.07,10.0,ENE,8.1,-,N/A,,Scattered Clouds,70,2012-12-28 03:23:00
9:53 PM,32.0,26.1,79,30.10,10.0,ENE,4.6,-,N/A,,Clear,60,2012-12-28 03:53:00
10:53 PM,30.9,26.1,82,30.11,9.0,ENE,3.5,-,N/A,,Clear,70,2012-12-28 04:53:00
11:53 PM,30.9,26.1,82,30.10,9.0,East,3.5,-,N/A,,Clear,80,2012-12-28 05:53:00